User: anonymous   Login
Location: Gungolding
(48.9246°N, 11.3502°E)
Time: 07:06:07
(UTC+02:00)
Language:

Transit 4A - Orbit

View from above orbital plane
View from above orbital plane
View from above satellite
View from above satellite

Ground track
Ground track

The orbit data is extracted from the following two-line orbital elements,

1   116U 61015A   20089.92300139 -.00000019 +00000-0 +44648-4 0  9998
2   116 066.8113 042.6331 0069631 061.8997 298.9098 13.91767271980757
Epoch (UTC): 29 March 2020 22:09:07
Eccentricity: 0.0069631
inclination: 66.8113°
perigee height: 871 km
apogee height: 973 km
right ascension of ascending node: 42.6331°
argument of perigee: 61.8997°
revolutions per day: 13.91767271
mean anomaly at epoch: 298.9098°
orbit number at epoch: 98075

The dashed part of the orbit path shows where the satellite is in the earth's shadow,  

DLR